Location: Ellingshausen
(50.5460°N, 10.4723°E)
Time: 10:21:24
(UTC+00:00)

Cosmos 1727 Rocket - Pass Details

Date: 18 January 2026
Orbit: 959 x 997 km, 82.9° (Epoch: 19 February)

Event Time Altitude Azimuth Distance (km) Brightness Sun altitude
Rises 06:19:21 0° 349° (N) 3,675 6.7 -8.0°
Reaches altitude 10° 06:21:52 10° 350° (N) 2,719 6.0 -7.7°
Maximum altitude 06:28:06 87° 263° (W) 971 4.0 -6.8°
Drops below altitude 10° 06:34:16 10° 174° (S) 2,687 6.8 -5.9°
Sets 06:36:44 0° 174° (S) 3,629 7.5 -5.5°
